This demonstration page uses our WeatherBlox Daily Observations layout. Learn more.

Left ArrowRight Arrow

Hourly Observations for January 23, 2020

Temp ( °F °C ) Dew Point ( °F °C ) Humidity (%) Winds ( mph kmh ) Pressure ( in mb ) Visibility ( mi km ) Precip ( " mm )
12:30 am 00:30 Cloudy with Mist and Fog 36 2 34 1 93 93 NW 5 7 29.95 1014 6 10 0.00 0.00
12:53 am 00:53 Cloudy with Mist and Fog 35 1.7 33 0.6 93 93 NW 6 9 29.93 1014 6 10 0.00 0.00
1:53 am 01:53 Cloudy 36 2.2 33 0.6 89 89 NW 16 26 29.93 1014 10 16 0.00 0.00
2:53 am 02:53 Cloudy 35 1.7 32 0 89 89 NW 13 20 29.94 1014 10 16 0.00 0.00
3:02 am 03:02 Cloudy with Light Wintry Mix 34 1.1 32 0 92 92 NW 15 24 29.98 1015 10 16 0.00 0.00
3:26 am 03:26 Cloudy with Light Snow 33 0.6 32 0 96 96 NW 14 22 29.98 1015 3 5 0.01 0.25
3:53 am 03:53 Cloudy with Light Snow 33 0.6 32 0 96 96 NW 15 24 29.94 1014 5 8 0.02 0.51
4:12 am 04:12 Cloudy with Light Snow 33 0.6 32 0 96 96 NW 14 22 29.98 1015 5 8 0.00 0.00
4:53 am 04:53 Cloudy with Light Snow 34 1.1 32 0 92 92 NW 13 20 29.93 1014 6 10 0.00 0.00
5:32 am 05:32 Cloudy with Light Snow 34 1 32 0 93 93 NW 12 19 29.98 1015 6 10 0.00 0.00
5:53 am 05:53 Cloudy with Light Snow 34 1.1 32 0 92 92 NW 14 22 29.94 1014 6 10 0.01 0.25
6:24 am 06:24 Cloudy with Light Snow 34 1.1 32 0 92 92 NW 14 22 29.98 1015 3 5 0.00 0.00
6:33 am 06:33 Cloudy with Light Snow 33 0.6 32 0 96 96 NW 14 22 29.98 1015 3 4 0.00 0.00
6:53 am 06:53 Cloudy with Light Snow 33 0.6 32 0 96 96 NW 13 20 29.95 1014 2 3 0.01 0.25
7:01 am 07:01 Cloudy with Light Snow 33 0.6 32 0 96 96 NW 12 19 29.99 1016 2 3 0.00 0.00
7:27 am 07:27 Cloudy with Light Snow 33 0.6 32 0 96 96 NW 14 22 29.99 1016 2 3 0.01 0.25
7:40 am 07:40 Cloudy with Light Snow 33 0.6 32 0 96 96 NW 16 26 29.99 1016 2 2 0.02 0.51
7:53 am 07:53 Cloudy with Light Snow 33 0.6 32 0 96 96 NW 14 22 29.96 1015 2 3 0.02 0.51
8:07 am 08:07 Cloudy with Light Snow 33 0.6 32 0 96 96 NW 14 22 30.00 1016 1 2 0.00 0.00
8:19 am 08:19 Cloudy with Light Snow 33 0.6 32 0 96 96 NW 13 20 30.00 1016 1 1 0.01 0.25
8:34 am 08:34 Mostly Cloudy with Light Snow 33 0.6 32 0 96 96 NW 13 20 30.00 1016 1 2 0.02 0.51
8:53 am 08:53 Cloudy with Light Snow 33 0.6 32 0 96 96 NNW 12 19 29.97 1015 1 1 0.03 0.76
9:16 am 09:16 Cloudy with Light Snow 34 1 32 0 93 93 NNW 14 22 30.01 1016 1 2 0.00 0.00
9:32 am 09:32 Cloudy with Light Snow 33 0.6 32 0 96 96 NNW 14 22 30.01 1016 1 1 0.01 0.25
9:53 am 09:53 Cloudy with Light Snow 33 0.6 32 0 96 96 NNW 14 22 29.99 1016 1 1 0.02 0.51
10:02 am 10:02 Cloudy with Light Snow 33 0.6 32 0 96 96 NNW 12 19 30.02 1017 1 2 0.00 0.00
10:11 am 10:11 Cloudy with Light Snow 33 0.6 32 0 96 96 NNW 13 20 30.03 1017 1 1 0.00 0.00
10:19 am 10:19 Cloudy with Light Snow 33 0.6 32 0 96 96 NNW 14 22 30.03 1017 1 2 0.00 0.00
10:38 am 10:38 Cloudy with Light Snow 33 0.6 32 0 96 96 NNW 13 20 30.04 1017 1 2 0.01 0.25
10:53 am 10:53 Cloudy with Light Snow 33 0.6 32 0 96 96 NNW 13 20 30.01 1016 1 2 0.01 0.25
11:36 am 11:36 Cloudy with Light Snow 34 1.1 32 0 92 92 NNW 10 17 30.04 1017 2 3 0.01 0.25
11:53 am 11:53 Cloudy with Light Snow 34 1.1 32 0 92 92 N 16 26 30.01 1016 2 2 0.01 0.25
12:53 pm 12:53 Cloudy with Light Snow 33 0.6 31 -0.6 92 92 N 17 28 30.00 1016 1 2 0.00 0.00
3:53 pm 15:53 Cloudy 31 -0.6 27 -2.8 85 85 N 21 33 30.03 1017 8 13 0.00 0.00
4:53 pm 16:53 Cloudy with Mist and Fog 30 -1.1 26 -3.3 85 85 N 20 31 30.05 1018 4 6 0.00 0.00
5:53 pm 17:53 Cloudy 29 -1.7 25 -3.9 85 85 N 22 35 30.06 1018 7 11 0.00 0.00
6:53 pm 18:53 Cloudy 29 -1.7 25 -3.9 85 85 N 21 33 30.08 1019 7 11 0.00 0.00
7:10 pm 19:10 Cloudy 28 -2 25 -4 86 86 N 22 35 30.13 1020 7 11 0.00 0.00
7:53 pm 19:53 Cloudy 29 -1.7 25 -3.9 85 85 N 20 31 30.09 1019 8 13 0.00 0.00
8:53 pm 20:53 Cloudy 28 -2.2 25 -3.9 88 88 N 16 26 30.09 1019 8 13 0.00 0.00
9:22 pm 21:22 Cloudy 28 -2.2 25 -3.9 88 88 N 17 28 30.14 1021 9 14 0.00 0.00
9:53 pm 21:53 Cloudy 28 -2.2 25 -3.9 88 88 NNW 14 22 30.10 1019 8 13 0.00 0.00
10:26 pm 22:26 Cloudy 28 -2 25 -4 86 86 NNW 21 33 30.15 1021 8 13 0.00 0.00
10:53 pm 22:53 Cloudy 29 -1.7 25 -3.9 85 85 NNW 16 26 30.11 1020 7 11 0.00 0.00
11:10 pm 23:10 Cloudy 28 -2 25 -4 86 86 NNW 17 28 30.16 1021 8 13 0.00 0.00
11:53 pm 23:53 Cloudy 28 -2.2 24 -4.4 85 85 NNW 18 30 30.12 1020 7 11 0.00 0.00

Powered by AerisWeather